This is the latest recevied weather packets stored in our database for station/object IZ2WYA-13. If no packets are shown the sender has not sent any weather packets the latest 10 day(s).
| Time | Temp. | Humidity | Pressure | Rain* | Wind** | Luminosity | Snow |
|---|---|---|---|---|---|---|---|
| 1787766382 | 26.67° C | 60% | 1018.5 hPa | - | - | - | - |
| 1787764581 | 27.22° C | 59% | 1018.2 hPa | - | - | - | - |
| 1787762780 | 27.22° C | 58% | 1018.1 hPa | - | - | - | - |
| 1787760978 | 27.78° C | 57% | 1017.6 hPa | - | - | - | - |
| 1787759177 | 27.78° C | 57% | 1017.6 hPa | - | - | - | - |
| 1787757376 | 27.78° C | 57% | 1017.5 hPa | - | - | - | - |
| 1787755575 | 27.78° C | 57% | 1017.5 hPa | - | - | - | - |
| 1787753773 | 27.78° C | 56% | 1017.7 hPa | - | - | - | - |
| 1787751972 | 27.78° C | 56% | 1017.8 hPa | - | - | - | - |
| 1787750171 | 27.22° C | 55% | 1018 hPa | - | - | - | - |
| 1787748370 | 26.67° C | 57% | 1018.2 hPa | - | - | - | - |
| 1787746569 | 26.11° C | 58% | 1018.8 hPa | - | - | - | - |
| 1787744767 | 25.56° C | 58% | 1019.1 hPa | - | - | - | - |
| 1787742966 | 25.56° C | 61% | 1018.9 hPa | - | - | - | - |
| 1787741165 | 25° C | 61% | 1019.6 hPa | - | - | - | - |
| 1787739363 | 24.44° C | 61% | 1019.7 hPa | - | - | - | - |
| 1787737562 | 23.89° C | 62% | 1020 hPa | - | - | - | - |
| 1787735761 | 23.33° C | 63% | 1020.3 hPa | - | - | - | - |
| 1787733960 | 23.33° C | 65% | 1020.4 hPa | - | - | - | - |
| 1787732159 | 22.78° C | 66% | 1020.7 hPa | - | - | - | - |
| 1787730357 | 22.78° C | 67% | 1020.8 hPa | - | - | - | - |
| 1787728556 | 22.22° C | 68% | 1020.9 hPa | - | - | - | - |
| 1787726755 | 22.22° C | 69% | 1020.9 hPa | - | - | - | - |
| 1787724954 | 21.67° C | 71% | 1020.8 hPa | - | - | - | - |
| 1787723152 | 21.11° C | 72% | 1020.5 hPa | - | - | - | - |
* Rain since midnight (hover to see other rain measurements)
** Current wind speed in m/s (hover to see current wind gust speed)